Theta_e
350 350 350 348 348 348 343 348 348 345 343 338 339 339 345 344 343 337 336 337 340 343 349 345 346 345 344 341 337 341 343 341 342 343 343 339 338 340 338 334 334 337 337
351 350 350 349 348 347 348 347 347 338 338 340 338 337 340 340 343 337 332 336 338 341 342 348 346 346 344 344 343 335 332 338 339 341 340 341 341 339 337 336 335 338 338
352 351 349 350 349 352 350 346 343 347 344 344 341 339 337 340 342 337 336 334 336 337 343 345 345 343 346 342 343 344 342 337 336 338 340 339 341 340 340 340 340 338 338
352 351 351 349 350 349 349 349 347 345 345 342 339 339 336 335 339 342 343 342 340 336 339 340 342 343 342 341 346 344 342 342 341 341 342 339 338 339 338 340 341 337 340
355 352 352 351 350 349 349 347 349 345 342 343 340 338 337 337 336 342 343 343 342 340 336 339 340 338 338 341 343 344 342 342 342 340 340 339 338 338 338 338 337 337 336
348 353 353 352 348 349 348 350 347 340 335 338 338 336 335 337 338 337 343 343 342 340 337 337 337 338 338 345 343 342 343 342 341 340 339 339 339 339 339 339 339 339 339
347 352 353 353 350 351 351 348 342 345 336 339 338 338 334 336 338 338 342 340 342 341 341 342 342 339 339 342 339 339 342 341 342 340 340 340 340 339 339 339 339 340 339
350 352 351 353 351 352 351 348 351 348 339 338 344 341 337 337 338 334 336 339 341 342 343 343 343 343 340 338 333 333 335 336 339 339 339 338 338 338 339 339 339 339 338
351 353 353 352 354 353 352 350 351 346 340 339 340 344 337 337 339 336 335 333 336 339 341 343 343 342 339 331 327 322 322 322 326 331 333 333 332 333 334 332 327 323 321
350 352 354 352 354 352 351 348 349 348 347 338 338 342 342 344 337 338 337 334 336 335 335 338 338 340 338 334 332 324 320 319 317 316 317 317 317 317 316 316 316 316 316
348 352 355 354 352 354 355 353 352 352 349 347 338 339 339 339 342 342 337 338 337 336 336 336 336 335 338 335 330 324 324 325 325 325 324 324 324 323 323 323 322 323 323
349 350 357 357 353 352 353 352 351 352 349 351 344 344 338 339 340 340 341 341 338 338 337 334 337 335 336 336 332 329 326 327 327 327 327 327 327 327 327 327 327 327 327
351 351 352 358 355 353 352 354 351 353 349 351 348 343 341 339 340 339 343 341 340 340 338 335 336 336 336 336 335 334 329 327 327 327 326 326 326 326 326 326 327 327 327
354 353 352 356 357 355 352 354 353 353 354 347 349 344 340 341 343 341 339 341 336 338 338 336 336 335 335 336 336 335 332 331 330 329 328 328 327 326 326 326 326 326 326
353 354 355 354 357 356 353 354 356 354 355 355 348 345 341 339 340 342 340 339 339 337 338 337 337 336 335 335 335 335 334 333 333 331 331 329 328 327 327 327 328 328 327
353 354 353 357 354 356 355 353 357 359 356 357 355 350 339 339 340 342 341 339 338 337 334 341 336 336 336 335 335 334 334 334 334 333 333 332 328 327 327 327 326 325 324
356 351 354 355 355 356 356 355 353 355 358 357 357 355 352 341 336 339 342 339 339 337 336 336 337 337 335 335 335 335 335 335 334 334 334 332 331 329 327 328 328 324 324
354 357 353 358 357 355 354 357 357 356 358 357 358 357 355 352 345 334 340 340 338 337 336 335 339 339 335 335 334 335 334 332 334 334 335 336 335 333 331 330 328 327 325
352 352 357 361 360 358 357 358 357 358 358 358 356 357 356 354 351 348 337 343 340 338 337 336 339 337 335 335 335 335 335 335 336 337 338 337 336 334 332 331 330 329 328
358 358 355 357 362 360 358 358 357 356 357 357 357 360 357 356 353 351 349 339 342 340 338 340 337 340 339 336 336 337 337 335 337 338 336 336 337 335 333 333 331 330 329
358 360 360 363 359 362 361 360 359 358 358 359 356 356 360 359 356 353 350 347 339 342 341 340 340 338 337 341 342 339 338 338 338 338 338 338 337 336 334 333 333 331 329
358 359 363 360 362 363 363 361 360 360 360 360 360 358 357 360 360 358 353 350 344 337 342 341 339 340 339 337 339 341 340 340 340 338 338 338 338 337 334 334 334 334 331
364 361 360 363 361 362 363 364 363 362 361 361 360 360 359 358 360 360 357 353 351 349 340 340 341 339 338 339 338 341 341 340 339 337 336 336 338 336 335 334 328 326 325
364 365 364 362 364 363 363 363 364 364 362 361 361 361 360 359 359 360 359 356 352 351 350 344 339 341 340 338 337 338 340 340 339 337 336 335 335 334 334 333 326 324 323
365 365 365 365 365 365 365 365 364 365 362 362 361 361 362 361 360 359 359 356 353 351 351 351 346 341 338 339 342 342 341 340 339 338 337 337 336 335 333 331 324 323 322
366 366 366 367 366 366 366 366 366 365 362 361 361 361 361 361 361 361 360 358 355 352 350 348 346 344 342 341 341 341 342 340 339 338 337 335 334 334 330 325 323 321 321
Wind_Speed
6 9 10 8 11 8 5 2 5 3 3 5 15 17 21 22 16 9 12 10 9 9 10 10 9 9 8 7 8 8 8 7 7 5 3 3 3 3 1 1 1 1 3
7 7 11 7 5 6 7 4 4 4 7 6 11 11 17 14 13 11 13 10 8 7 9 10 10 9 9 7 5 6 7 7 6 4 3 3 2 1 1 1 1 1 1
5 7 7 10 7 3 3 5 3 3 7 6 4 5 8 14 10 15 11 10 8 7 8 9 10 8 9 8 7 6 4 4 5 4 3 3 4 4 3 3 3 3 3
9 8 9 10 9 4 6 5 2 2 3 7 6 9 8 11 12 15 12 12 10 7 8 9 10 9 9 8 8 6 6 6 5 5 5 4 4 4 4 4 4 4 5
14 10 8 7 7 6 7 5 3 3 4 10 6 12 10 7 11 15 14 11 10 8 8 9 9 10 8 7 6 6 6 6 6 6 7 7 6 6 6 6 6 6 6
15 12 8 9 7 9 7 6 4 4 9 6 11 16 10 4 9 14 16 15 11 9 9 9 9 8 6 5 4 4 4 5 6 7 7 8 7 6 6 6 6 7 7
15 14 10 9 6 7 7 5 7 4 8 9 9 9 7 7 3 6 17 13 15 10 10 8 8 7 7 5 4 4 4 5 5 6 7 5 5 6 5 4 4 4 3
17 16 12 8 9 8 8 9 7 3 5 6 4 3 2 1 8 16 17 13 14 14 11 8 8 8 7 5 4 5 4 3 3 3 3 2 2 1 3 2 1 2 3
18 15 15 13 9 14 10 10 9 8 6 7 4 4 2 3 3 7 8 11 18 15 13 12 10 8 6 3 4 5 3 3 4 4 3 3 3 3 2 2 3 4 5
19 17 17 14 14 14 12 10 10 9 7 8 7 6 4 4 3 1 8 9 10 9 12 12 12 12 10 7 4 4 5 5 6 6 5 5 4 4 5 5 5 5 5
23 20 21 17 17 15 13 11 13 13 9 5 8 12 7 6 4 4 2 7 10 10 14 16 13 14 14 12 7 7 7 6 7 6 5 4 5 4 5 5 5 4 4
28 25 22 22 19 18 17 15 14 13 13 9 10 8 12 7 10 4 2 6 13 12 16 15 17 17 17 15 12 10 8 6 5 4 3 2 1 1 2 1 1 2 3
30 28 26 23 23 20 19 17 17 17 15 13 10 10 12 11 9 11 6 6 5 11 13 17 16 15 17 17 16 13 9 7 5 4 3 3 3 3 5 5 6 6 7
28 27 28 26 26 23 21 20 20 20 18 17 15 15 14 11 8 10 4 4 1 3 9 9 22 18 17 19 17 16 12 10 8 6 6 7 7 7 7 9 9 10 11
31 28 29 32 30 28 25 24 24 23 20 18 19 18 19 16 11 8 9 7 4 2 3 12 8 21 20 17 15 16 14 11 10 9 8 9 11 11 10 10 10 11 12
27 27 32 34 36 33 29 27 25 24 23 22 21 18 20 21 17 12 14 12 10 7 2 8 16 17 24 21 18 17 14 11 11 11 12 11 12 12 11 11 12 14 13
26 33 25 35 39 37 33 30 29 28 26 25 23 23 21 21 22 18 16 18 17 14 9 9 15 18 20 21 21 18 16 17 16 15 16 14 14 13 12 12 12 13 12
37 28 31 26 33 37 35 35 33 31 30 30 29 27 27 23 23 25 18 24 23 20 19 15 8 23 24 23 20 22 22 20 18 17 16 18 19 18 14 13 13 11 11
42 39 31 29 34 38 37 37 37 35 35 31 34 34 32 30 31 30 31 24 27 25 22 20 15 22 27 25 22 21 20 20 21 20 19 18 17 20 16 15 15 12 11
39 39 41 36 34 38 41 41 39 38 39 39 35 35 39 38 38 37 36 35 27 30 29 25 24 22 25 28 27 27 25 24 24 22 22 18 16 19 20 18 19 18 14
37 39 38 40 39 38 41 43 41 41 41 40 40 41 38 42 44 43 40 39 39 31 34 30 27 27 27 20 30 33 32 28 27 25 24 23 21 19 20 18 18 21 18
40 38 40 41 40 40 40 43 42 38 40 39 39 43 40 41 44 45 46 42 40 41 34 29 27 23 29 32 28 34 31 28 12 24 26 26 23 22 18 15 15 14 13
35 39 39 38 41 42 42 42 43 40 38 39 41 38 39 39 42 45 48 47 45 42 44 40 31 34 30 40 37 30 32 30 26 22 22 20 20 19 16 14 12 11 11
38 38 38 39 37 42 42 43 43 46 40 38 38 40 39 39 39 43 45 47 49 49 46 45 41 39 40 37 36 37 34 34 25 20 20 13 20 20 16 14 12 11 12
35 37 36 36 39 38 37 39 40 43 43 44 39 37 39 42 40 41 42 39 41 47 49 48 46 45 42 33 27 33 30 29 10 16 24 19 20 22 20 19 17 14 13
36 33 35 36 37 35 34 35 37 42 39 37 37 41 42 44 41 42 45 39 39 42 42 41 49 48 46 44 38 32 31 30 22 12 23 23 22 21 8 19 19 18 16
Wind_Direction
153 188 186 197 206 205 170 171 136 92 43 91 50 94 136 161 165 157 147 145 153 151 152 154 153 151 145 148 152 150 145 148 147 135 137 133 127 136 136 92 90 44 14
162 149 171 165 178 129 130 128 87 90 157 91 71 69 131 144 162 146 129 136 141 141 157 165 163 165 165 167 168 168 175 178 170 168 180 187 195 229 237 288 289 297 329
163 163 178 196 183 138 159 110 87 89 190 197 147 114 122 142 153 143 130 130 137 148 161 171 175 171 172 181 179 189 186 189 195 194 235 240 236 258 264 279 295 304 312
181 167 171 159 185 183 205 206 223 22 222 218 185 149 141 124 143 151 146 141 130 130 150 162 170 180 180 188 193 204 209 222 230 230 234 246 249 249 262 274 271 284 279
184 180 185 161 154 165 183 193 145 16 90 194 173 142 171 131 154 166 165 162 138 129 135 148 159 172 185 187 194 207 227 234 238 237 238 241 244 243 258 271 283 283 282
190 189 175 179 172 169 163 180 144 110 89 96 125 126 117 112 175 162 181 171 153 146 140 138 154 161 173 177 196 208 225 235 238 233 236 241 250 258 260 268 274 277 289
185 195 200 199 202 167 178 170 127 120 121 111 123 117 122 141 149 161 162 168 171 165 156 145 139 147 151 177 194 195 189 203 211 213 223 235 246 247 247 255 266 283 297
190 201 202 184 184 194 185 182 176 193 168 158 95 101 27 315 93 131 132 149 169 172 166 166 160 148 146 139 171 181 188 170 169 186 190 183 181 181 204 200 188 14 16
193 204 209 208 214 198 200 186 195 179 172 142 154 126 86 212 133 121 123 127 152 156 162 169 179 177 152 152 152 138 156 161 145 148 148 137 142 144 133 102 77 59 48
201 209 215 207 197 210 209 198 184 196 188 164 155 151 112 137 143 28 152 166 162 170 170 180 177 183 178 189 164 131 139 132 127 117 121 119 112 107 98 88 87 88 78
217 211 216 217 204 205 213 213 203 204 200 205 194 170 166 173 156 143 183 192 188 189 184 195 194 188 194 197 191 160 145 134 129 130 128 124 112 111 98 83 69 62 55
214 212 211 215 210 209 213 204 205 208 205 199 206 212 184 182 202 185 131 191 200 204 206 195 202 192 200 209 200 180 169 162 154 161 166 176 145 62 33 12 6 357 351
213 212 212 212 211 213 209 206 213 208 208 208 201 196 210 204 207 224 202 192 192 205 208 206 201 197 205 207 205 202 188 192 194 206 222 237 249 267 272 285 294 298 301
213 215 212 214 214 215 210 210 212 213 211 213 217 216 216 217 225 196 188 151 68 185 204 195 211 209 213 218 216 208 206 206 217 229 240 248 260 270 276 281 289 292 286
217 219 217 215 216 216 214 212 216 219 213 215 218 222 223 222 227 221 219 221 168 138 245 222 188 210 209 209 205 211 215 222 229 234 249 256 257 264 272 284 291 295 291
217 218 217 217 214 216 214 213 216 222 218 219 222 222 227 224 226 229 217 223 226 195 192 230 204 199 207 210 217 223 220 222 236 241 249 262 257 257 266 284 297 300 296
224 227 227 221 216 213 214 217 219 223 223 224 223 223 230 231 232 229 227 217 220 219 206 221 225 212 196 205 211 213 215 220 231 240 247 252 257 257 260 276 291 295 293
225 222 231 221 217 217 215 217 219 222 225 227 225 222 227 229 232 233 233 223 223 219 220 222 221 205 206 210 211 204 215 228 233 241 249 255 255 254 256 270 282 291 296
228 228 227 222 217 217 217 218 222 223 224 229 230 226 224 225 230 230 231 233 227 226 223 221 214 203 206 212 208 213 227 238 240 240 237 251 243 243 249 264 276 278 279
227 226 230 227 222 218 219 220 222 226 229 231 232 235 230 226 229 231 230 231 228 224 223 219 217 203 213 216 218 217 220 232 243 241 243 247 245 241 243 254 260 262 265
225 228 227 230 228 226 219 220 221 224 226 229 232 232 234 233 233 235 234 231 228 225 222 219 219 221 225 212 216 221 225 229 237 244 245 248 243 244 243 253 262 261 258
221 223 226 225 227 227 227 226 222 220 224 225 228 233 232 238 239 237 237 240 238 227 225 219 220 221 222 227 225 219 217 220 228 234 238 248 242 247 241 262 275 265 248
218 222 225 227 225 228 229 229 227 224 225 225 228 230 231 231 237 238 237 237 240 242 240 228 220 220 220 224 228 224 216 213 219 220 218 231 229 228 235 254 246 225 220
218 220 224 226 229 231 231 230 231 232 231 233 231 231 231 232 231 235 234 232 232 237 240 239 234 235 236 242 233 231 230 219 222 205 210 202 219 232 244 250 239 223 216
218 222 225 227 229 235 234 233 231 234 235 237 236 236 234 235 233 231 232 227 230 231 236 240 241 240 239 233 235 228 210 192 188 196 198 210 224 236 230 221 221 224 230
218 220 225 227 231 235 236 235 233 235 238 241 242 242 242 239 236 232 230 226 228 228 226 232 234 235 236 235 226 223 212 195 199 202 216 200 215 227 207 216 216 219 223